Year,Month,Day,Hour,Minute,Value (Times are PST for temperature in C)
2018,10,15,00,00,6.80
2018,10,15,00,01,6.80
2018,10,15,00,02,6.80
2018,10,15,00,03,6.80
2018,10,15,00,04,6.80
2018,10,15,00,05,6.70
2018,10,15,00,06,6.70
2018,10,15,00,07,6.70
2018,10,15,00,08,6.70
2018,10,15,00,09,6.70
2018,10,15,00,10,6.70
2018,10,15,00,11,6.70
2018,10,15,00,12,6.70
2018,10,15,00,13,6.70
2018,10,15,00,14,6.70
2018,10,15,00,15,6.70
2018,10,15,00,16,6.70
2018,10,15,00,17,6.70
2018,10,15,00,18,6.60
2018,10,15,00,19,6.60
2018,10,15,00,20,6.60
2018,10,15,00,21,6.60
2018,10,15,00,22,6.60
2018,10,15,00,23,6.60
2018,10,15,00,24,6.60
2018,10,15,00,25,6.60
2018,10,15,00,26,6.50
2018,10,15,00,27,6.50
2018,10,15,00,28,6.50
2018,10,15,00,29,6.40
2018,10,15,00,30,6.40
2018,10,15,00,31,6.40
2018,10,15,00,32,6.40
2018,10,15,00,33,6.40
2018,10,15,00,34,6.40
2018,10,15,00,35,6.40
2018,10,15,00,36,6.40
2018,10,15,00,37,6.40
2018,10,15,00,38,6.40
2018,10,15,00,39,6.30
2018,10,15,00,40,6.30
2018,10,15,00,41,6.30
2018,10,15,00,42,6.30
2018,10,15,00,43,6.30
2018,10,15,00,44,6.30
2018,10,15,00,45,6.30
2018,10,15,00,46,6.30
2018,10,15,00,47,6.30
2018,10,15,00,48,6.30
2018,10,15,00,49,6.30
2018,10,15,00,50,6.20
2018,10,15,00,51,6.20
2018,10,15,00,52,6.20
2018,10,15,00,53,6.20
2018,10,15,00,54,6.20
2018,10,15,00,55,6.20
2018,10,15,00,56,6.20
2018,10,15,00,57,6.20
2018,10,15,00,58,6.20
2018,10,15,00,59,6.20
2018,10,15,01,00,6.20
2018,10,15,01,01,6.20
2018,10,15,01,02,6.20
2018,10,15,01,03,6.20
2018,10,15,01,04,6.20
2018,10,15,01,05,6.20
2018,10,15,01,06,6.20
2018,10,15,01,07,6.10
2018,10,15,01,08,6.10
2018,10,15,01,09,6.10
2018,10,15,01,10,6.10
2018,10,15,01,11,6.10
2018,10,15,01,12,6.10
2018,10,15,01,13,6.10
2018,10,15,01,14,6.10
2018,10,15,01,15,6.10
2018,10,15,01,16,6.10
2018,10,15,01,17,6.10
2018,10,15,01,18,6.00
2018,10,15,01,19,6.00
2018,10,15,01,20,6.00
2018,10,15,01,21,6.00
2018,10,15,01,22,6.00
2018,10,15,01,23,6.00
2018,10,15,01,24,6.00
2018,10,15,01,25,6.00
2018,10,15,01,26,5.90
2018,10,15,01,27,5.90
2018,10,15,01,28,5.90
2018,10,15,01,29,5.90
2018,10,15,01,31,5.90
2018,10,15,01,32,5.90
2018,10,15,01,33,5.90
2018,10,15,01,34,5.90
2018,10,15,01,35,5.90
2018,10,15,01,36,5.80
2018,10,15,01,37,5.80
2018,10,15,01,38,5.80
2018,10,15,01,39,5.80
2018,10,15,01,40,5.80
2018,10,15,01,41,5.80
2018,10,15,01,42,5.80
2018,10,15,01,43,5.80
2018,10,15,01,44,5.80
2018,10,15,01,45,5.80
2018,10,15,01,46,5.80
2018,10,15,01,47,5.80
2018,10,15,01,48,5.80
2018,10,15,01,49,5.70
2018,10,15,01,50,5.70
2018,10,15,01,51,5.70
2018,10,15,01,52,5.70
2018,10,15,01,53,5.70
2018,10,15,01,54,5.70
2018,10,15,01,55,5.70
2018,10,15,01,56,5.70
2018,10,15,01,57,5.70
2018,10,15,01,58,5.70
2018,10,15,01,59,5.70
2018,10,15,02,00,5.70
2018,10,15,02,01,5.70
2018,10,15,02,02,5.70
2018,10,15,02,03,5.70
2018,10,15,02,04,5.60
2018,10,15,02,05,5.60
2018,10,15,02,06,5.60
2018,10,15,02,07,5.60
2018,10,15,02,08,5.60
2018,10,15,02,09,5.60
2018,10,15,02,10,5.60
2018,10,15,02,11,5.60
2018,10,15,02,12,5.60
2018,10,15,02,13,5.60
2018,10,15,02,14,5.60
2018,10,15,02,15,5.60
2018,10,15,02,16,5.60
2018,10,15,02,17,5.60
2018,10,15,02,18,5.60
2018,10,15,02,19,5.60
2018,10,15,02,20,5.60
2018,10,15,02,21,5.60
2018,10,15,02,22,5.60
2018,10,15,02,23,5.60
2018,10,15,02,24,5.60
2018,10,15,02,25,5.50
2018,10,15,02,26,5.50
2018,10,15,02,27,5.50
2018,10,15,02,28,5.50
2018,10,15,02,29,5.50
2018,10,15,02,30,5.40
2018,10,15,02,31,5.40
2018,10,15,02,32,5.40
2018,10,15,02,33,5.40
2018,10,15,02,34,5.40
2018,10,15,02,35,5.40
2018,10,15,02,36,5.40
2018,10,15,02,37,5.40
2018,10,15,02,38,5.40
2018,10,15,02,39,5.30
2018,10,15,02,40,5.30
2018,10,15,02,41,5.30
2018,10,15,02,42,5.30
2018,10,15,02,43,5.30
2018,10,15,02,44,5.30
2018,10,15,02,45,5.30
2018,10,15,02,46,5.30
2018,10,15,02,47,5.30
2018,10,15,02,48,5.30
2018,10,15,02,49,5.30
2018,10,15,02,50,5.30
2018,10,15,02,51,5.30
2018,10,15,02,52,5.30
2018,10,15,02,53,5.30
2018,10,15,02,54,5.30
2018,10,15,02,55,5.30
2018,10,15,02,56,5.30
2018,10,15,02,57,5.20
2018,10,15,02,58,5.20
2018,10,15,02,59,5.20
2018,10,15,03,00,5.20
2018,10,15,03,01,5.20
2018,10,15,03,02,5.20
2018,10,15,03,03,5.20
2018,10,15,03,04,5.20
2018,10,15,03,05,5.20
2018,10,15,03,06,5.20
2018,10,15,03,07,5.20
2018,10,15,03,08,5.20
2018,10,15,03,09,5.20
2018,10,15,03,10,5.20
2018,10,15,03,11,5.20
2018,10,15,03,12,5.20
2018,10,15,03,13,5.20
2018,10,15,03,14,5.20
2018,10,15,03,15,5.20
2018,10,15,03,16,5.20
2018,10,15,03,17,5.20
2018,10,15,03,18,5.20
2018,10,15,03,19,5.20
2018,10,15,03,20,5.20
2018,10,15,03,21,5.10
2018,10,15,03,22,5.10
2018,10,15,03,23,5.10
2018,10,15,03,24,5.10
2018,10,15,03,25,5.10
2018,10,15,03,26,5.10
2018,10,15,03,27,5.10
2018,10,15,03,28,5.10
2018,10,15,03,29,5.10
2018,10,15,03,30,5.10
2018,10,15,03,31,5.10
2018,10,15,03,32,5.10
2018,10,15,03,33,5.10
2018,10,15,03,34,5.10
2018,10,15,03,35,5.10
2018,10,15,03,36,5.00
2018,10,15,03,37,5.00
2018,10,15,03,38,5.00
2018,10,15,03,39,5.00
2018,10,15,03,40,5.00
2018,10,15,03,41,5.00
2018,10,15,03,42,5.00
2018,10,15,03,43,4.90
2018,10,15,03,44,4.90
2018,10,15,03,45,4.90
2018,10,15,03,46,4.90
2018,10,15,03,47,4.90
2018,10,15,03,48,4.90
2018,10,15,03,49,4.90
2018,10,15,03,50,4.90
2018,10,15,03,51,4.90
2018,10,15,03,52,4.90
2018,10,15,03,53,4.80
2018,10,15,03,54,4.80
2018,10,15,03,55,4.80
2018,10,15,03,56,4.80
2018,10,15,03,57,4.80
2018,10,15,03,58,4.80
2018,10,15,03,59,4.80
2018,10,15,04,00,4.80
2018,10,15,04,01,4.80
2018,10,15,04,02,4.80
2018,10,15,04,03,4.80
2018,10,15,04,04,4.80
2018,10,15,04,05,4.80
2018,10,15,04,06,4.80
2018,10,15,04,07,4.80
2018,10,15,04,08,4.80
2018,10,15,04,09,4.80
2018,10,15,04,10,4.80
2018,10,15,04,11,4.80
2018,10,15,04,12,4.80
2018,10,15,04,13,4.80
2018,10,15,04,14,4.80
2018,10,15,04,15,4.80
2018,10,15,04,16,4.70
2018,10,15,04,17,4.80
2018,10,15,04,18,4.70
2018,10,15,04,19,4.70
2018,10,15,04,20,4.70
2018,10,15,04,21,4.70
2018,10,15,04,22,4.70
2018,10,15,04,23,4.70
2018,10,15,04,24,4.70
2018,10,15,04,25,4.80
2018,10,15,04,26,4.80
2018,10,15,04,27,4.80
2018,10,15,04,28,4.80
2018,10,15,04,29,4.80
2018,10,15,04,30,4.80
2018,10,15,04,31,4.80
2018,10,15,04,32,4.80
2018,10,15,04,33,4.70
2018,10,15,04,34,4.70
2018,10,15,04,35,4.70
2018,10,15,04,36,4.70
2018,10,15,04,37,4.70
2018,10,15,04,38,4.70
2018,10,15,04,39,4.70
2018,10,15,04,40,4.70
2018,10,15,04,41,4.70
2018,10,15,04,42,4.70
2018,10,15,04,43,4.70
2018,10,15,04,44,4.70
2018,10,15,04,45,4.70
2018,10,15,04,46,4.70
2018,10,15,04,47,4.70
2018,10,15,04,48,4.70
2018,10,15,04,49,4.70
2018,10,15,04,50,4.70
2018,10,15,04,51,4.70
2018,10,15,04,52,4.70
2018,10,15,04,53,4.70
2018,10,15,04,54,4.70
2018,10,15,04,55,4.70
2018,10,15,04,56,4.70
2018,10,15,04,57,4.70
2018,10,15,04,58,4.70
2018,10,15,04,59,4.70
2018,10,15,05,00,4.70
2018,10,15,05,01,4.70
2018,10,15,05,02,4.70
2018,10,15,05,03,4.70
2018,10,15,05,04,4.70
2018,10,15,05,05,4.70
2018,10,15,05,06,4.70
2018,10,15,05,07,4.70
2018,10,15,05,08,4.70
2018,10,15,05,09,4.70
2018,10,15,05,10,4.70
2018,10,15,05,11,4.70
2018,10,15,05,12,4.70
2018,10,15,05,13,4.70
2018,10,15,05,14,4.70
2018,10,15,05,15,4.70
2018,10,15,05,16,4.70
2018,10,15,05,17,4.70
2018,10,15,05,18,4.70
2018,10,15,05,19,4.70
2018,10,15,05,20,4.70
2018,10,15,05,21,4.70
2018,10,15,05,22,4.70
2018,10,15,05,23,4.70
2018,10,15,05,24,4.70
2018,10,15,05,25,4.70
2018,10,15,05,26,4.70
2018,10,15,05,27,4.60
2018,10,15,05,28,4.60
2018,10,15,05,29,4.60
2018,10,15,05,30,4.60
2018,10,15,05,31,4.60
2018,10,15,05,32,4.60
2018,10,15,05,33,4.60
2018,10,15,05,34,4.60
2018,10,15,05,35,4.60
2018,10,15,05,36,4.60
2018,10,15,05,37,4.60
2018,10,15,05,38,4.60
2018,10,15,05,39,4.60
2018,10,15,05,40,4.60
2018,10,15,05,41,4.60
2018,10,15,05,42,4.70
2018,10,15,05,43,4.70
2018,10,15,05,44,4.70
2018,10,15,05,45,4.70
2018,10,15,05,46,4.70
2018,10,15,05,47,4.70
2018,10,15,05,48,4.70
2018,10,15,05,49,4.70
2018,10,15,05,50,4.70
2018,10,15,05,51,4.60
2018,10,15,05,52,4.60
2018,10,15,05,53,4.60
2018,10,15,05,54,4.60
2018,10,15,05,55,4.60
2018,10,15,05,56,4.60
2018,10,15,05,57,4.60
2018,10,15,05,58,4.50
2018,10,15,05,59,4.50
2018,10,15,06,00,4.50
2018,10,15,06,01,4.50
2018,10,15,06,02,4.40
2018,10,15,06,03,4.40
2018,10,15,06,04,4.40
2018,10,15,06,05,4.40
2018,10,15,06,06,4.40
2018,10,15,06,07,4.40
2018,10,15,06,08,4.40
2018,10,15,06,09,4.40
2018,10,15,06,10,4.50
2018,10,15,06,11,4.50
2018,10,15,06,12,4.50
2018,10,15,06,13,4.50
2018,10,15,06,14,4.50
2018,10,15,06,15,4.60
2018,10,15,06,16,4.60
2018,10,15,06,17,4.60
2018,10,15,06,18,4.60
2018,10,15,06,19,4.60
2018,10,15,06,20,4.60
2018,10,15,06,21,4.60
2018,10,15,06,22,4.70
2018,10,15,06,23,4.70
2018,10,15,06,24,4.70
2018,10,15,06,25,4.70
2018,10,15,06,26,4.70
2018,10,15,06,27,4.70
2018,10,15,06,28,4.70
2018,10,15,06,29,4.70
2018,10,15,06,30,4.60
2018,10,15,06,31,4.70
2018,10,15,06,32,4.70
2018,10,15,06,33,4.70
2018,10,15,06,34,4.70
2018,10,15,06,35,4.60
2018,10,15,06,36,4.60
2018,10,15,06,37,4.60
2018,10,15,06,38,4.60
2018,10,15,06,39,4.60
2018,10,15,06,40,4.60
2018,10,15,06,41,4.60
2018,10,15,06,42,4.60
2018,10,15,06,43,4.60
2018,10,15,06,44,4.70
2018,10,15,06,45,4.70
2018,10,15,06,46,4.70
2018,10,15,06,47,4.60
2018,10,15,06,48,4.70
2018,10,15,06,49,4.60
2018,10,15,06,50,4.60
2018,10,15,06,51,4.60
2018,10,15,06,52,4.60
2018,10,15,06,53,4.60
2018,10,15,06,54,4.60
2018,10,15,06,55,4.60
2018,10,15,06,56,4.60
2018,10,15,06,57,4.60
2018,10,15,06,58,4.60
2018,10,15,06,59,4.60
2018,10,15,07,00,4.60
2018,10,15,07,01,4.60
2018,10,15,07,02,4.60
2018,10,15,07,03,4.50
2018,10,15,07,04,4.50
2018,10,15,07,05,4.50
2018,10,15,07,06,4.50
2018,10,15,07,07,4.50
2018,10,15,07,08,4.40
2018,10,15,07,09,4.40
2018,10,15,07,10,4.40
2018,10,15,07,11,4.40
2018,10,15,07,12,4.40
2018,10,15,07,13,4.40
2018,10,15,07,14,4.40
2018,10,15,07,15,4.40
2018,10,15,07,16,4.40
2018,10,15,07,17,4.40
2018,10,15,07,18,4.40
2018,10,15,07,19,4.40
2018,10,15,07,20,4.30
2018,10,15,07,21,4.30
2018,10,15,07,22,4.30
2018,10,15,07,23,4.30
2018,10,15,07,24,4.30
2018,10,15,07,25,4.30
2018,10,15,07,26,4.30
2018,10,15,07,27,4.30
2018,10,15,07,28,4.30
2018,10,15,07,29,4.30
2018,10,15,07,30,4.30
2018,10,15,07,31,4.30
2018,10,15,07,32,4.30
2018,10,15,07,33,4.30
2018,10,15,07,34,4.30
2018,10,15,07,35,4.30
2018,10,15,07,36,4.30
2018,10,15,07,37,4.30
2018,10,15,07,38,4.30
2018,10,15,07,39,4.30
2018,10,15,07,40,4.30
2018,10,15,07,41,4.30
2018,10,15,07,42,4.30
2018,10,15,07,43,4.30
2018,10,15,07,44,4.30
2018,10,15,07,45,4.30
2018,10,15,07,46,4.30
2018,10,15,07,47,4.30
2018,10,15,07,48,4.30
2018,10,15,07,49,4.30
2018,10,15,07,50,4.30
2018,10,15,07,51,4.30
2018,10,15,07,52,4.40
2018,10,15,07,53,4.40
2018,10,15,07,54,4.40
2018,10,15,07,55,4.40
2018,10,15,07,56,4.40
2018,10,15,07,57,4.50
2018,10,15,07,58,4.50
2018,10,15,07,59,4.50
2018,10,15,08,00,4.50
2018,10,15,08,01,4.50
2018,10,15,08,02,4.50
2018,10,15,08,03,4.50
2018,10,15,08,04,4.50
2018,10,15,08,05,4.50
2018,10,15,08,06,4.50
2018,10,15,08,07,4.50
2018,10,15,08,08,4.50
2018,10,15,08,09,4.40
2018,10,15,08,10,4.50
2018,10,15,08,11,4.40
2018,10,15,08,12,4.40
2018,10,15,08,13,4.40
2018,10,15,08,14,4.50
2018,10,15,08,15,4.50
2018,10,15,08,16,4.50
2018,10,15,08,17,4.60
2018,10,15,08,18,4.60
2018,10,15,08,19,4.60
2018,10,15,08,20,4.60
2018,10,15,08,21,4.60
2018,10,15,08,22,4.60
2018,10,15,08,23,4.60
2018,10,15,08,24,4.70
2018,10,15,08,25,4.70
2018,10,15,08,26,4.70
2018,10,15,08,27,4.70
2018,10,15,08,28,4.70
2018,10,15,08,29,4.70
2018,10,15,08,30,4.70
2018,10,15,08,31,4.80
2018,10,15,08,32,4.80
2018,10,15,08,33,4.80
2018,10,15,08,34,4.80
2018,10,15,08,35,4.80
2018,10,15,08,36,4.80
2018,10,15,08,37,4.90
2018,10,15,08,38,4.90
2018,10,15,08,39,4.90
2018,10,15,08,40,4.90
2018,10,15,08,41,4.90
2018,10,15,08,42,4.90
2018,10,15,08,43,4.90
2018,10,15,08,44,5.00
2018,10,15,08,45,5.00
2018,10,15,08,46,5.00
2018,10,15,08,47,5.00
2018,10,15,08,48,5.00
2018,10,15,08,49,5.00
2018,10,15,08,50,5.00
2018,10,15,08,51,5.00
2018,10,15,08,52,5.00
2018,10,15,08,53,5.00
2018,10,15,08,54,5.00
2018,10,15,08,55,5.00
2018,10,15,08,56,5.00
2018,10,15,08,57,4.90
2018,10,15,08,58,4.90
2018,10,15,08,59,4.90
2018,10,15,09,00,4.90
2018,10,15,09,01,4.90
2018,10,15,09,02,4.90
2018,10,15,09,03,4.90
2018,10,15,09,04,4.90
2018,10,15,09,05,4.90
2018,10,15,09,06,5.00
2018,10,15,09,07,5.00
2018,10,15,09,08,5.00
2018,10,15,09,09,5.00
2018,10,15,09,10,5.00
2018,10,15,09,11,5.00
2018,10,15,09,12,5.10
2018,10,15,09,13,5.10
2018,10,15,09,14,5.10
2018,10,15,09,15,5.10
2018,10,15,09,16,5.10
2018,10,15,09,17,5.10
2018,10,15,09,18,5.20
2018,10,15,09,19,5.20
2018,10,15,09,20,5.20
2018,10,15,09,21,5.20
2018,10,15,09,22,5.20
2018,10,15,09,23,5.20
2018,10,15,09,24,5.30
2018,10,15,09,25,5.30
2018,10,15,09,26,5.30
2018,10,15,09,27,5.30
2018,10,15,09,28,5.30
2018,10,15,09,29,5.40
2018,10,15,09,30,5.40
2018,10,15,09,31,5.40
2018,10,15,09,32,5.40
2018,10,15,09,33,5.50
2018,10,15,09,34,5.50
2018,10,15,09,35,5.50
2018,10,15,09,36,5.50
2018,10,15,09,37,5.50
2018,10,15,09,38,5.50
2018,10,15,09,39,5.50
2018,10,15,09,40,5.50
2018,10,15,09,41,5.50
2018,10,15,09,42,5.60
2018,10,15,09,43,5.60
2018,10,15,09,44,5.60
2018,10,15,09,45,5.60
2018,10,15,09,46,5.60
2018,10,15,09,47,5.60
2018,10,15,09,48,5.60
2018,10,15,09,49,5.60
2018,10,15,09,50,5.60
2018,10,15,09,51,5.60
2018,10,15,09,52,5.60
2018,10,15,09,53,5.60
2018,10,15,09,54,5.60
2018,10,15,09,55,5.60
2018,10,15,09,56,5.70
2018,10,15,09,57,5.70
2018,10,15,09,58,5.70
2018,10,15,09,59,5.70
2018,10,15,10,00,5.70
2018,10,15,10,01,5.70
2018,10,15,10,02,5.70
2018,10,15,10,03,5.70
2018,10,15,10,04,5.80
2018,10,15,10,05,5.80
2018,10,15,10,06,5.80
2018,10,15,10,07,5.80
2018,10,15,10,08,5.80
2018,10,15,10,09,5.80
2018,10,15,10,10,5.90
2018,10,15,10,11,5.90
2018,10,15,10,12,5.90
2018,10,15,10,13,5.90
2018,10,15,10,14,5.90
2018,10,15,10,15,6.00
2018,10,15,10,16,6.00
2018,10,15,10,17,6.10
2018,10,15,10,18,6.10
2018,10,15,10,19,6.10
2018,10,15,10,20,6.10
2018,10,15,10,21,6.10
2018,10,15,10,22,6.10
2018,10,15,10,23,6.10
2018,10,15,10,24,6.10
2018,10,15,10,25,6.10
2018,10,15,10,26,6.10
2018,10,15,10,27,6.20
2018,10,15,10,28,6.20
2018,10,15,10,29,6.20
2018,10,15,10,30,6.30
2018,10,15,10,31,6.30
2018,10,15,10,32,6.40
2018,10,15,10,33,6.40
2018,10,15,10,34,6.40
2018,10,15,10,35,6.40
2018,10,15,10,36,6.40
2018,10,15,10,37,6.40
2018,10,15,10,38,6.40
2018,10,15,10,39,6.40
2018,10,15,10,40,6.40
2018,10,15,10,41,6.50
2018,10,15,10,42,6.50
2018,10,15,10,43,6.40
2018,10,15,10,44,6.40
2018,10,15,10,45,6.40
2018,10,15,10,46,6.50
2018,10,15,10,47,6.50
2018,10,15,10,48,6.50
2018,10,15,10,49,6.60
2018,10,15,10,50,6.50
2018,10,15,10,51,6.60
2018,10,15,10,52,6.60
2018,10,15,10,53,6.60
2018,10,15,10,54,6.60
2018,10,15,10,55,6.60
2018,10,15,10,56,6.60
2018,10,15,10,57,6.70
2018,10,15,10,58,6.70
2018,10,15,10,59,6.80
2018,10,15,11,00,6.90
2018,10,15,11,01,6.90
2018,10,15,11,02,7.10
2018,10,15,11,03,7.10
2018,10,15,11,04,7.20
2018,10,15,11,05,7.20
2018,10,15,11,06,7.30
2018,10,15,11,07,7.30
2018,10,15,11,08,7.30
2018,10,15,11,09,7.30
2018,10,15,11,10,7.30
2018,10,15,11,11,7.30
2018,10,15,11,12,7.40
2018,10,15,11,13,7.40
2018,10,15,11,14,7.50
2018,10,15,11,15,7.60
2018,10,15,11,16,7.60
2018,10,15,11,17,7.70
2018,10,15,11,18,7.80
2018,10,15,11,19,7.80
2018,10,15,11,20,7.90
2018,10,15,11,21,8.00
2018,10,15,11,22,8.10
2018,10,15,11,23,8.20
2018,10,15,11,24,8.20
2018,10,15,11,25,8.30
2018,10,15,11,26,8.30
2018,10,15,11,27,8.40
2018,10,15,11,28,8.50
2018,10,15,11,29,8.60
2018,10,15,11,30,8.70
2018,10,15,11,31,8.80
2018,10,15,11,32,8.80
2018,10,15,11,33,8.90
2018,10,15,11,34,9.00
2018,10,15,11,35,9.10
2018,10,15,11,36,9.20
2018,10,15,11,37,9.30
2018,10,15,11,38,9.40
2018,10,15,11,39,9.50
2018,10,15,11,40,9.60
2018,10,15,11,41,9.60
2018,10,15,11,42,9.70
2018,10,15,11,43,9.80
2018,10,15,11,44,9.80
2018,10,15,11,45,9.90
2018,10,15,11,46,10.10
2018,10,15,11,47,10.20
2018,10,15,11,48,10.30
2018,10,15,11,49,10.30
2018,10,15,11,50,10.40
2018,10,15,11,51,10.50
2018,10,15,11,52,10.60
2018,10,15,11,53,10.70
2018,10,15,11,54,10.70
2018,10,15,11,55,10.80
2018,10,15,11,56,10.90
2018,10,15,11,57,10.90
2018,10,15,11,58,11.00
2018,10,15,11,59,11.10
2018,10,15,12,00,11.10
2018,10,15,12,01,11.20
2018,10,15,12,02,11.30
2018,10,15,12,03,11.40
2018,10,15,12,04,11.50
2018,10,15,12,05,11.60
2018,10,15,12,06,11.70
2018,10,15,12,07,11.80
2018,10,15,12,08,11.90
2018,10,15,12,09,12.10
2018,10,15,12,10,12.20
2018,10,15,12,11,12.20
2018,10,15,12,12,12.20
2018,10,15,12,13,12.30
2018,10,15,12,14,12.30
2018,10,15,12,15,12.30
2018,10,15,12,16,12.40
2018,10,15,12,17,12.40
2018,10,15,12,18,12.50
2018,10,15,12,19,12.50
2018,10,15,12,20,12.60
2018,10,15,12,21,12.70
2018,10,15,12,22,12.70
2018,10,15,12,23,12.70
2018,10,15,12,24,12.80
2018,10,15,12,25,12.80
2018,10,15,12,26,12.90
2018,10,15,12,27,12.90
2018,10,15,12,28,13.00
2018,10,15,12,29,13.10
2018,10,15,12,30,13.10
2018,10,15,12,31,13.20
2018,10,15,12,32,13.20
2018,10,15,12,33,13.20
2018,10,15,12,34,13.20
2018,10,15,12,35,13.20
2018,10,15,12,36,13.30
2018,10,15,12,37,13.40
2018,10,15,12,38,13.40
2018,10,15,12,39,13.50
2018,10,15,12,40,13.60
2018,10,15,12,41,13.70
2018,10,15,12,42,13.70
2018,10,15,12,43,13.80
2018,10,15,12,44,13.90
2018,10,15,12,45,13.90
2018,10,15,12,46,14.00
2018,10,15,12,47,14.10
2018,10,15,12,48,14.10
2018,10,15,12,49,14.20
2018,10,15,12,50,14.30
2018,10,15,12,51,14.30
2018,10,15,12,52,14.40
2018,10,15,12,53,14.40
2018,10,15,12,54,14.40
2018,10,15,12,55,14.50
2018,10,15,12,56,14.50
2018,10,15,12,57,14.60
2018,10,15,12,58,14.70
2018,10,15,12,59,14.70
2018,10,15,13,00,14.80
2018,10,15,13,01,14.80
2018,10,15,13,02,14.80
2018,10,15,13,03,14.80
2018,10,15,13,04,14.70
2018,10,15,13,05,14.70
2018,10,15,13,06,14.70
2018,10,15,13,07,14.70
2018,10,15,13,08,14.80
2018,10,15,13,09,14.80
2018,10,15,13,10,14.90
2018,10,15,13,11,14.90
2018,10,15,13,12,15.00
2018,10,15,13,13,15.10
2018,10,15,13,14,15.10
2018,10,15,13,15,15.20
2018,10,15,13,16,15.20
2018,10,15,13,17,15.30
2018,10,15,13,18,15.30
2018,10,15,13,19,15.30
2018,10,15,13,20,15.40
2018,10,15,13,21,15.40
2018,10,15,13,22,15.40
2018,10,15,13,23,15.50
2018,10,15,13,24,15.60
2018,10,15,13,25,15.70
2018,10,15,13,26,15.70
2018,10,15,13,27,15.80
2018,10,15,13,28,15.80
2018,10,15,13,29,15.90
2018,10,15,13,30,15.90
2018,10,15,13,31,15.90
2018,10,15,13,32,16.00
2018,10,15,13,33,16.10
2018,10,15,13,34,16.10
2018,10,15,13,35,16.20
2018,10,15,13,36,16.20
2018,10,15,13,37,16.20
2018,10,15,13,38,16.30
2018,10,15,13,39,16.30
2018,10,15,13,40,16.40
2018,10,15,13,41,16.50
2018,10,15,13,42,16.60
2018,10,15,13,43,16.60
2018,10,15,13,44,16.70
2018,10,15,13,45,16.80
2018,10,15,13,46,16.80
2018,10,15,13,47,16.90
2018,10,15,13,48,16.90
2018,10,15,13,49,16.90
2018,10,15,13,50,17.00
2018,10,15,13,51,17.10
2018,10,15,13,52,17.10
2018,10,15,13,53,17.10
2018,10,15,13,54,17.20
2018,10,15,13,55,17.30
2018,10,15,13,56,17.30
2018,10,15,13,57,17.40
2018,10,15,13,58,17.50
2018,10,15,13,59,17.60
2018,10,15,14,00,17.60
2018,10,15,14,01,17.60
2018,10,15,14,02,17.60
2018,10,15,14,03,17.60
2018,10,15,14,04,17.70
2018,10,15,14,05,17.70
2018,10,15,14,06,17.70
2018,10,15,14,07,17.70
2018,10,15,14,08,17.70
2018,10,15,14,09,17.80
2018,10,15,14,10,17.80
2018,10,15,14,11,17.80
2018,10,15,14,12,17.90
2018,10,15,14,13,17.90
2018,10,15,14,14,18.00
2018,10,15,14,15,18.10
2018,10,15,14,16,18.10
2018,10,15,14,17,18.20
2018,10,15,14,18,18.20
2018,10,15,14,19,18.20
2018,10,15,14,20,18.30
2018,10,15,14,21,18.30
2018,10,15,14,22,18.30
2018,10,15,14,23,18.40
2018,10,15,14,24,18.60
2018,10,15,14,25,18.70
2018,10,15,14,26,18.70
2018,10,15,14,27,18.70
2018,10,15,14,28,18.80
2018,10,15,14,29,18.80
2018,10,15,14,30,18.90
2018,10,15,14,31,18.90
2018,10,15,14,32,19.00
2018,10,15,14,33,19.00
2018,10,15,14,34,19.10
2018,10,15,14,35,19.10
2018,10,15,14,36,19.10
2018,10,15,14,37,19.10
2018,10,15,14,38,19.10
2018,10,15,14,39,19.10
2018,10,15,14,40,19.20
2018,10,15,14,41,19.30
2018,10,15,14,42,19.30
2018,10,15,14,43,19.40
2018,10,15,14,44,19.40
2018,10,15,14,45,19.50
2018,10,15,14,46,19.60
2018,10,15,14,47,19.60
2018,10,15,14,48,19.60
2018,10,15,14,49,19.60
2018,10,15,14,50,19.70
2018,10,15,14,51,19.70
2018,10,15,14,52,19.70
2018,10,15,14,53,19.70
2018,10,15,14,54,19.70
2018,10,15,14,55,19.80
2018,10,15,14,56,19.80
2018,10,15,14,57,19.80
2018,10,15,14,58,19.80
2018,10,15,14,59,19.80
2018,10,15,15,00,19.90
2018,10,15,15,01,19.90
2018,10,15,15,02,19.90
2018,10,15,15,03,19.80
2018,10,15,15,04,19.80
2018,10,15,15,05,19.70
2018,10,15,15,06,19.70
2018,10,15,15,07,19.80
2018,10,15,15,08,19.80
2018,10,15,15,09,19.80
2018,10,15,15,10,19.80
2018,10,15,15,11,19.80
2018,10,15,15,12,19.80
2018,10,15,15,13,19.90
2018,10,15,15,14,19.90
2018,10,15,15,15,19.90
2018,10,15,15,16,19.80
2018,10,15,15,17,19.80
2018,10,15,15,18,19.70
2018,10,15,15,19,19.70
2018,10,15,15,20,19.70
2018,10,15,15,21,19.70
2018,10,15,15,22,19.70
2018,10,15,15,23,19.80
2018,10,15,15,24,19.80
2018,10,15,15,25,19.90
2018,10,15,15,26,19.90
2018,10,15,15,27,20.00
2018,10,15,15,28,20.00
2018,10,15,15,29,20.10
2018,10,15,15,30,20.10
2018,10,15,15,31,20.10
2018,10,15,15,32,20.10
2018,10,15,15,33,20.00
2018,10,15,15,34,19.90
2018,10,15,15,35,19.90
2018,10,15,15,36,20.00
2018,10,15,15,37,20.10
2018,10,15,15,38,20.10
2018,10,15,15,39,20.20
2018,10,15,15,40,20.20
2018,10,15,15,41,20.30
2018,10,15,15,42,20.30
2018,10,15,15,43,20.40
2018,10,15,15,44,20.40
2018,10,15,15,45,20.40
2018,10,15,15,46,20.50
2018,10,15,15,47,20.60
2018,10,15,15,48,20.60
2018,10,15,15,49,20.60
2018,10,15,15,50,20.60
2018,10,15,15,51,20.60
2018,10,15,15,52,20.70
2018,10,15,15,53,20.70
2018,10,15,15,54,20.80
2018,10,15,15,55,20.80
2018,10,15,15,56,20.80
2018,10,15,15,57,20.80
2018,10,15,15,58,20.80
2018,10,15,15,59,20.80
2018,10,15,16,00,20.70
2018,10,15,16,01,20.70
2018,10,15,16,02,20.70
2018,10,15,16,03,20.70
2018,10,15,16,04,20.60
2018,10,15,16,05,20.50
2018,10,15,16,06,20.30
2018,10,15,16,07,20.30
2018,10,15,16,08,20.30
2018,10,15,16,09,20.30
2018,10,15,16,10,20.40
2018,10,15,16,11,20.40
2018,10,15,16,12,20.50
2018,10,15,16,13,20.60
2018,10,15,16,14,20.70
2018,10,15,16,15,20.70
2018,10,15,16,16,20.80
2018,10,15,16,17,20.90
2018,10,15,16,18,20.90
2018,10,15,16,19,21.10
2018,10,15,16,20,21.10
2018,10,15,16,21,21.20
2018,10,15,16,22,21.20
2018,10,15,16,23,21.20
2018,10,15,16,24,21.20
2018,10,15,16,25,21.20
2018,10,15,16,26,21.20
2018,10,15,16,27,21.30
2018,10,15,16,28,21.30
2018,10,15,16,29,21.40
2018,10,15,16,30,21.40
2018,10,15,16,31,21.50
2018,10,15,16,32,21.50
2018,10,15,16,33,21.50
2018,10,15,16,34,21.50
2018,10,15,16,35,21.40
2018,10,15,16,36,21.40
2018,10,15,16,37,21.40
2018,10,15,16,38,21.30
2018,10,15,16,39,21.30
2018,10,15,16,40,21.30
2018,10,15,16,41,21.40
2018,10,15,16,42,21.40
2018,10,15,16,43,21.40
2018,10,15,16,44,21.40
2018,10,15,16,45,21.30
2018,10,15,16,46,21.30
2018,10,15,16,47,21.30
2018,10,15,16,48,21.30
2018,10,15,16,49,21.20
2018,10,15,16,50,21.10
2018,10,15,16,51,21.00
2018,10,15,16,52,20.90
2018,10,15,16,53,20.80
2018,10,15,16,54,20.70
2018,10,15,16,55,20.70
2018,10,15,16,56,20.60
2018,10,15,16,57,20.50
2018,10,15,16,58,20.40
2018,10,15,16,59,20.30
2018,10,15,17,00,20.20
2018,10,15,17,01,20.20
2018,10,15,17,02,20.20
2018,10,15,17,03,19.80
2018,10,15,17,04,19.70
2018,10,15,17,05,19.60
2018,10,15,17,06,19.60
2018,10,15,17,07,19.40
2018,10,15,17,08,19.40
2018,10,15,17,09,19.30
2018,10,15,17,10,19.30
2018,10,15,17,11,19.20
2018,10,15,17,12,19.10
2018,10,15,17,13,19.10
2018,10,15,17,14,19.10
2018,10,15,17,15,19.00
2018,10,15,17,16,18.90
2018,10,15,17,17,18.90
2018,10,15,17,18,18.90
2018,10,15,17,19,18.80
2018,10,15,17,20,18.80
2018,10,15,17,21,18.70
2018,10,15,17,22,18.70
2018,10,15,17,23,18.60
2018,10,15,17,24,18.50
2018,10,15,17,25,18.40
2018,10,15,17,26,18.40
2018,10,15,17,27,18.30
2018,10,15,17,28,18.20
2018,10,15,17,29,18.10
2018,10,15,17,30,18.00
2018,10,15,17,31,17.90
2018,10,15,17,32,17.90
2018,10,15,17,33,17.80
2018,10,15,17,34,17.80
2018,10,15,17,35,17.70
2018,10,15,17,36,17.60
2018,10,15,17,37,17.60
2018,10,15,17,38,17.40
2018,10,15,17,39,17.40
2018,10,15,17,40,17.30
2018,10,15,17,41,17.30
2018,10,15,17,42,17.20
2018,10,15,17,43,17.10
2018,10,15,17,44,17.10
2018,10,15,17,45,16.90
2018,10,15,17,46,16.80
2018,10,15,17,47,16.80
2018,10,15,17,48,16.70
2018,10,15,17,49,16.60
2018,10,15,17,50,16.60
2018,10,15,17,51,16.50